Latest Coastal Weather Observations for Geelong Racecourse

IDV60701

Issued at 7:15 pm EDT Wednesday 22 October 2014 (issued every 10 minutes, with the page automatically refreshed every 10 minutes)

About coastal observations | Map of coastal stations | Coastal observations for VIC | Marine services | Other Formats
Station Details ID: 087184 Name: GEELONG RACECOURSE Lat: -38.17 Lon: 144.38 Height: 12.9 m
Data from the previous 72 hours. | See also: Recent months at Geelong Racecourse
Date/Time
EDT
Temp

°C
Wind Pressure Rain
since 9am
mm
Weather Cloud Vis
km
Sea
Height
m
Swell
Dir
 
Speed
knots
Gust
knots
hPa Trend Height
m
Period
s
Dir
22/07:00pm 23.8 S 13 18 1015.2 - 0.0 - - - - - - -
22/06:30pm 26.0 S 13 17 1014.6 - 0.0 - - - - - - -
22/06:00pm 28.0 SSW 11 15 1014.6 - 0.0 - - - - - - -
22/05:30pm 30.2 E 3 5 1014.0 - 0.0 - - - - - - -
22/05:00pm 30.3 ENE 5 7 1014.1 - 0.0 - - - - - - -
22/04:30pm 31.0 NE 6 10 1014.1 - 0.0 - - - - - - -
22/04:00pm 29.6 NE 5 9 1014.2 - 0.0 - - - - - - -
22/03:30pm 28.7 NE 6 8 1014.7 - 0.0 - - - - - - -
22/03:00pm 28.6 NE 6 9 1015.0 - 0.0 - - - - - - -
22/02:30pm 28.6 ENE 7 12 1015.2 - 0.0 - - - - - - -
22/02:00pm 30.0 ENE 8 12 1015.5 - 0.0 - - - - - - -
22/01:30pm 27.7 ENE 8 11 1015.9 - 0.0 - - - - - - -
22/01:00pm 27.8 ENE 7 10 1016.2 - 0.0 - - - - - - -
22/12:30pm 28.0 ENE 6 10 1016.8 - 0.0 - - - - - - -
22/12:00pm 26.9 ENE 6 8 1017.1 - 0.0 - - - - - - -
22/11:30am 26.3 ENE 3 7 1017.7 - 0.0 - - - - - - -
22/11:00am 26.4 NE 3 5 1018.2 - 0.0 - - - - - - -
22/10:30am 24.3 NE 4 6 1018.4 - 0.0 - - - - - - -
22/10:00am 23.0 NE 3 4 1018.7 - 0.0 - - - - - - -
22/09:30am 21.5 NNE 4 7 1018.9 - 0.0 - - - - - - -
22/09:00am 20.1 NNE 7 10 1018.6 - 0.0 - - - - - - -
22/08:30am 18.6 NNE 6 9 1018.3 - 0.0 - - - - - - -
22/08:00am 15.9 NNE 4 5 1018.6 - 0.0 - - - - - - -
22/07:30am 14.4 N 3 4 1018.6 - 0.0 - - - - - - -
22/07:00am 12.9 N 3 4 1018.6 - 0.0 - - - - - - -
22/06:30am 12.4 N 3 4 1018.8 - 0.0 - - - - - - -
22/06:00am 10.6 N 2 3 1018.9 - 0.0 - - - - - - -
22/05:30am 11.3 N 2 2 1018.7 - 0.0 - - - - - - -
22/05:00am 10.2 N 1 2 1018.8 - 0.0 - - - - - - -
22/04:30am 10.2 CALM 0 0 1018.9 - 0.0 - - - - - - -
22/04:00am 10.7 CALM 0 0 1019.1 - 0.0 - - - - - - -
22/03:30am 10.7 CALM 0 0 1019.3 - 0.0 - - - - - - -
22/03:00am 10.9 CALM 0 0 1019.7 - 0.0 - - - - - - -
22/02:30am 11.5 SSW 0 0 1020.2 - 0.0 - - - - - - -
22/02:00am 12.1 CALM 0 0 1020.6 - 0.0 - - - - - - -
22/01:30am 11.6 CALM 0 0 1020.8 - 0.0 - - - - - - -
22/01:00am 12.6 CALM 0 0 1021.2 - 0.0 - - - - - - -
22/12:30am 12.5 CALM 0 0 1021.6 - 0.0 - - - - - - -
22/12:00am 13.8 WSW 0 0 1022.0 - 0.0 - - - - - - -
 
Date/Time
EDT
Temp

°C
Wind Pressure Rain
since 9am
mm
Weather Cloud Vis
km
Sea
Height
m
Swell
Dir
 
Speed
knots
Gust
knots
hPa Trend Height
m
Period
s
Dir
21/11:30pm 14.1 WSW 1 3 1022.4 - 0.0 - - - - - - -
21/11:00pm 14.4 CALM 0 0 1022.7 - 0.0 - - - - - - -
21/10:30pm 14.8 CALM 0 0 1022.9 - 0.0 - - - - - - -
21/10:00pm 15.3 SW 1 2 1023.0 - 0.0 - - - - - - -
21/09:30pm 15.7 SW 3 4 1023.1 - 0.0 - - - - - - -
21/09:00pm 16.1 SSW 2 4 1022.9 - 0.0 - - - - - - -
21/08:30pm 16.3 SSW 3 4 1022.7 - 0.0 - - - - - - -
21/08:00pm 16.9 SW 3 3 1022.7 - 0.0 - - - - - - -
21/07:30pm 18.3 S 4 5 1022.5 - 0.0 - - - - - - -
21/07:00pm 19.8 S 6 7 1022.3 - 0.0 - - - - - - -
21/06:30pm 21.7 SSE 7 9 1022.3 - 0.0 - - - - - - -
21/06:00pm 23.1 SSE 7 10 1022.4 - 0.0 - - - - - - -
21/05:30pm 23.3 S 9 14 1022.4 - 0.0 - - - - - - -
21/05:00pm 23.5 S 11 15 1022.5 - 0.0 - - - - - - -
21/04:30pm 25.6 ESE 6 14 1022.4 - 0.0 - - - - - - -
21/04:00pm 25.6 ENE 6 10 1022.7 - 0.0 - - - - - - -
21/03:30pm 25.5 E 5 9 1023.2 - 0.0 - - - - - - -
21/03:00pm 24.8 ENE 6 10 1023.6 - 0.0 - - - - - - -
21/02:30pm 24.7 ENE 5 8 1024.2 - 0.0 - - - - - - -
21/02:00pm 23.6 NE 6 9 1024.8 - 0.0 - - - - - - -
21/01:30pm 22.4 ENE 5 10 1025.1 - 0.0 - - - - - - -
21/01:00pm 21.2 NE 7 10 1025.8 - 0.0 - - - - - - -
21/12:30pm 20.1 ENE 7 11 1026.1 - 0.0 - - - - - - -
21/12:00pm 18.9 ENE 8 11 1026.2 - 0.0 - - - - - - -
21/11:30am 17.4 ENE 7 13 1026.7 - 0.0 - - - - - - -
21/11:00am 16.2 ENE 9 14 1026.9 - 0.0 - - - - - - -
21/10:30am 15.4 NE 7 11 1027.1 - 0.0 - - - - - - -
21/10:00am 14.8 NE 8 10 1027.3 - 0.0 - - - - - - -
21/09:30am 14.6 NE 6 9 1027.3 - 0.0 - - - - - - -
21/09:00am 14.2 NE 6 8 1027.4 - 0.0 - - - - - - -
21/08:30am 13.7 E 4 6 1027.2 - 0.0 - - - - - - -
21/08:00am 12.5 E 3 4 1027.0 - 0.0 - - - - - - -
21/07:30am 10.1 SSE 2 3 1026.8 - 0.0 - - - - - - -
21/07:00am 8.1 S 3 3 1026.6 - 0.0 - - - - - - -
21/06:30am 8.0 S 3 3 1026.4 - 0.0 - - - - - - -
21/06:00am 8.2 S 3 4 1026.2 - 0.0 - - - - - - -
21/05:30am 9.2 ESE 2 4 1026.2 - 0.0 - - - - - - -
21/05:00am 9.5 SE 3 5 1026.3 - 0.0 - - - - - - -
21/04:30am 10.1 ESE 3 5 1026.3 - 0.0 - - - - - - -
21/04:00am 10.4 SE 4 8 1026.4 - 0.0 - - - - - - -
21/03:30am 10.3 SE 4 6 1026.8 - 0.0 - - - - - - -
21/03:00am 10.2 SE 3 4 1027.0 - 0.0 - - - - - - -
21/02:30am 10.8 SSE 5 7 1027.3 - 0.0 - - - - - - -
21/02:00am 10.9 SE 6 8 1027.5 - 0.0 - - - - - - -
21/01:30am 9.9 SSE 4 6 1027.9 - 0.0 - - - - - - -
21/01:00am 10.2 SSE 4 6 1028.5 - 0.0 - - - - - - -
21/12:30am 10.8 SSE 4 7 1028.6 - 0.0 - - - - - - -
21/12:00am 11.1 SE 4 6 1028.8 - 0.0 - - - - - - -
 
Date/Time
EDT
Temp

°C
Wind Pressure Rain
since 9am
mm
Weather Cloud Vis
km
Sea
Height
m
Swell
Dir
 
Speed
knots
Gust
knots
hPa Trend Height
m
Period
s
Dir
20/11:30pm 11.4 SE 5 8 1029.0 - 0.0 - - - - - - -
20/11:00pm 12.0 SE 6 10 1029.2 - 0.0 - - - - - - -
20/10:30pm 12.3 SE 6 10 1029.2 - 0.0 - - - - - - -
20/10:00pm 12.6 SE 7 10 1029.1 - 0.0 - - - - - - -
20/09:30pm 12.9 SE 6 10 1029.1 - 0.0 - - - - - - -
20/09:00pm 13.3 SE 8 13 1028.9 - 0.0 - - - - - - -
20/08:30pm 13.6 SE 9 15 1028.5 - 0.0 - - - - - - -
20/08:00pm 13.8 SE 11 19 1028.4 - 0.0 - - - - - - -
20/07:30pm 14.2 SE 12 17 1028.3 - 0.0 - - - - - - -
20/07:00pm 14.6 SSE 13 20 1028.3 - 0.0 - - - - - - -
20/06:30pm 14.9 SSE 16 24 1028.3 - 0.0 - - - - - - -
20/06:00pm 15.4 SSE 17 23 1028.5 - 0.0 - - - - - - -
20/05:30pm 15.9 SSE 15 24 1028.5 - 0.0 - - - - - - -
20/05:00pm 16.1 SSE 15 22 1028.6 - 0.0 - - - - - - -
20/04:30pm 16.1 SSE 15 24 1028.8 - 0.0 - - - - - - -
20/04:00pm 16.3 SSE 15 22 1028.8 - 0.0 - - - - - - -
20/03:30pm 16.2 SSE 15 21 1029.2 - 0.0 - - - - - - -
20/03:00pm 16.2 SSE 14 22 1029.4 - 0.0 - - - - - - -
20/02:30pm 16.2 SSE 14 22 1029.6 - 0.0 - - - - - - -
20/02:00pm 15.6 SSE 14 20 1029.9 - 0.0 - - - - - - -
20/01:30pm 15.8 SSE 11 17 1030.2 - 0.0 - - - - - - -
20/01:00pm 15.9 SSE 11 18 1030.3 - 0.0 - - - - - - -
20/12:30pm 15.2 SSE 13 19 1030.5 - 0.0 - - - - - - -
20/12:00pm 15.0 SE 12 16 1031.0 - 0.0 - - - - - - -
20/11:30am 14.7 SE 12 19 1031.2 - 0.0 - - - - - - -
20/11:00am 14.5 SE 11 17 1031.4 - 0.0 - - - - - - -
20/10:30am 14.4 SE 13 19 1031.4 - 0.0 - - - - - - -
20/10:00am 14.3 SSE 13 21 1031.2 - 0.0 - - - - - - -
20/09:30am 14.0 ESE 11 18 1031.4 - 0.0 - - - - - - -
20/09:00am 13.3 SE 11 17 1031.3 - 0.0 - - - - - - -
20/08:30am 13.0 ESE 8 13 1031.0 - 0.0 - - - - - - -
20/08:00am 12.0 ESE 8 14 1030.9 - 0.0 - - - - - - -
20/07:30am 11.4 E 5 9 1030.7 - 0.0 - - - - - - -
20/07:00am 11.0 SE 6 10 1030.4 - 0.0 - - - - - - -
20/06:30am 11.3 SE 8 13 1030.1 - 0.0 - - - - - - -
20/06:00am 11.5 SE 7 14 1029.9 - 0.0 - - - - - - -
20/05:30am 10.7 SE 5 7 1029.7 - 0.0 - - - - - - -
20/05:00am 10.8 SSE 7 10 1029.6 - 0.0 - - - - - - -
20/04:30am 11.2 SE 7 11 1029.3 - 0.0 - - - - - - -
20/04:00am 11.7 SSE 7 12 1029.3 - 0.0 - - - - - - -
20/03:30am 10.7 SE 5 8 1029.2 - 0.0 - - - - - - -
20/03:00am 11.3 SSE 7 11 1029.4 - 0.0 - - - - - - -
20/02:30am 11.3 SSE 7 10 1029.5 - 0.0 - - - - - - -
20/02:00am 11.8 SSE 9 14 1029.5 - 0.0 - - - - - - -
20/01:30am 11.6 SSE 8 13 1029.6 - 0.0 - - - - - - -
20/01:00am 12.3 SSE 9 14 1029.5 - 0.0 - - - - - - -
20/12:30am 12.5 S 11 18 1029.5 - 0.0 - - - - - - -
20/12:00am 12.4 S 9 15 1029.5 - 0.0 - - - - - - -
 
Date/Time
EDT
Temp

°C
Wind Pressure Rain
since 9am
mm
Weather Cloud Vis
km
Sea
Height
m
Swell
Dir
 
Speed
knots
Gust
knots
hPa Trend Height
m
Period
s
Dir
19/11:30pm 12.4 S 10 13 1029.2 - 0.0 - - - - - - -
19/11:00pm 12.1 S 10 17 1029.2 - 0.0 - - - - - - -
19/10:30pm 12.1 S 10 13 1029.0 - 0.0 - - - - - - -
19/10:00pm 12.0 S 14 19 1028.4 - 0.0 - - - - - - -
19/09:30pm 13.2 S 11 16 1028.2 - 0.0 - - - - - - -
19/09:00pm 13.5 S 16 22 1027.4 - 0.0 - - - - - - -
19/08:30pm 14.2 SSW 11 19 1026.6 - 0.0 - - - - - - -
19/08:00pm 14.3 SSW 11 16 1025.8 - 0.0 - - - - - - -
19/07:30pm 14.4 SSW 9 13 1024.9 - 0.0 - - - - - - -

Other Formats:

Comma delimited format used in spreadsheet applications
http://www.bom.gov.au/fwo/IDV60701/IDV60701.94857.axf

JavaScript Object Notation format (JSON) in row-major order
http://www.bom.gov.au/fwo/IDV60701/IDV60701.94857.json